Midland Airpark, TX

5:22 AM CDT on April 26, 2017 (GMT -0500)
Midland

Weather History for KMDD - November, 2012

Change the Weather History Date:

Tuesday, November 20, 2012

  Actual Average (KMAF) Record (KMAF)
Temperature  
Mean Temperature 59 °F -  
Max Temperature 74 °F 61 °F 90 °F (1996)
Min Temperature 44 °F 37 °F 22 °F (1988)
Degree Days  
Heating Degree Days 6    
Growing Degree Days 9 (Base 50)    
Moisture  
Dew Point 30 °F    
Average Humidity 36    
Maximum Humidity 72    
Minimum Humidity 15    
Precipitation  
Precipitation 0.00 in - - ()
Sea Level Pressure  
Sea Level Pressure 30.23 in    
Wind  
Wind Speed 3 mph (WNW)    
Max Wind Speed 8 mph    
Max Gust Speed -    
Visibility 10 miles    
Events      
Averages and records for this station are not official NWS values.
T = Trace of Precipitation, MM = Missing Value Source: NWS Daily Summary

Daily Weather History Graph

Daily Weather History Graph

Search for Another Location

Airport or City:

Trip Planner

Search our weather history database for the weather conditions in past years. The results will help you decide how hot, cold, wet, or windy it might be!

Date:

Astronomy

Nov. 20, 2012 Rise Set
Actual Time 7:22 AM CST 5:46 PM CST
Civil Twilight 6:55 AM CST 6:12 PM CST
Nautical Twilight 6:26 AM CST 6:41 PM CST
Astronomical Twilight 5:56 AM CST 7:11 PM CST
Moon 1:09 PM CST (11/20) 12:06 AM CST (11/20)
Length of Visible Light 11h 16m
Length of Day
10h 23m
First Quarter, 51% of the Moon is Illuminated
Nov 20
First Quarter
Nov 28
Full
Dec 6
Last Quarter
Dec 13
New
Dec 19
First Quarter

Hourly Weather History & Observations

Time (CST) Temp. Windchill Dew Point Humidity Pressure Visibility Wind Dir Wind Speed Gust Speed Precip Events Conditions
12:15 AM 52.7 °F - 35.1 °F 51% 30.20 in 10.0 mi Calm Calm - N/A   Clear
12:35 AM 52.2 °F - 35.2 °F 53% 30.21 in 10.0 mi Calm Calm - N/A   Clear
12:55 AM 51.4 °F - 35.2 °F 54% 30.21 in 10.0 mi NW 5.8 mph - N/A   Clear
1:15 AM 49.3 °F - 34.5 °F 57% 30.21 in 10.0 mi NNW 6.9 mph - N/A   Clear
1:35 AM 50.5 °F - 34.2 °F 53% 30.21 in 10.0 mi WNW 6.9 mph - N/A   Clear
1:55 AM 51.8 °F - 33.3 °F 49% 30.21 in 10.0 mi WNW 8.1 mph - N/A   Clear
2:15 AM 51.4 °F - 33.3 °F 50% 30.22 in 10.0 mi WNW 6.9 mph - N/A   Clear
2:35 AM 50.7 °F - 33.4 °F 52% 30.21 in 10.0 mi WNW 6.9 mph - N/A   Clear
6:15 AM 45.7 °F 43.4 °F 36.1 °F 69% 30.23 in 10.0 mi West 4.6 mph - N/A   Clear
6:35 AM 45.3 °F 44.0 °F 36.1 °F 70% 30.24 in 10.0 mi West 3.5 mph - N/A   Clear
6:55 AM 45.1 °F 42.8 °F 35.8 °F 70% 30.24 in 10.0 mi West 4.6 mph - N/A   Clear
7:15 AM 44.8 °F 41.6 °F 35.4 °F 70% 30.25 in 10.0 mi WSW 5.8 mph - N/A   Clear
7:35 AM 44.2 °F 41.8 °F 35.6 °F 72% 30.25 in 10.0 mi West 4.6 mph - N/A   Clear
7:55 AM 44.4 °F 42.9 °F 35.6 °F 71% 30.26 in 10.0 mi West 3.5 mph - N/A   Clear
8:15 AM 45.3 °F 42.3 °F 35.8 °F 69% 30.26 in 10.0 mi WSW 5.8 mph - N/A   Clear
8:35 AM 47.3 °F - 35.4 °F 63% 30.27 in 10.0 mi West 5.8 mph - N/A   Clear
8:55 AM 49.3 °F - 34.2 °F 56% 30.28 in 10.0 mi West 6.9 mph - N/A   Clear
9:15 AM 51.1 °F - 33.6 °F 51% 30.28 in 10.0 mi WNW 6.9 mph - N/A   Clear
9:35 AM 52.5 °F - 32.9 °F 47% 30.29 in 10.0 mi West 4.6 mph - N/A   Clear
9:55 AM 54.3 °F - 33.3 °F 45% 30.29 in 10.0 mi WNW 4.6 mph - N/A   Clear
10:15 AM 56.5 °F - 33.3 °F 42% 30.29 in 10.0 mi West 3.5 mph - N/A   Clear
10:35 AM 58.3 °F - 32.9 °F 38% 30.29 in 10.0 mi West 3.5 mph - N/A   Clear
10:55 AM 61.0 °F - 32.4 °F 34% 30.29 in 10.0 mi Calm Calm - N/A   Clear
11:15 AM 63.5 °F - 32.0 °F 31% 30.28 in 10.0 mi Calm Calm - N/A   Clear
11:35 AM 65.7 °F - 31.5 °F 28% 30.28 in 10.0 mi Calm Calm - N/A   Clear
11:55 AM 67.5 °F - 30.6 °F 25% 30.27 in 10.0 mi Calm Calm - N/A   Clear
12:15 PM 69.3 °F - 30.4 °F 24% 30.26 in 10.0 mi Calm Calm - N/A   Clear
12:35 PM 71.2 °F - 29.3 °F 21% 30.25 in 10.0 mi Calm Calm - N/A   Clear
12:55 PM 72.0 °F - 29.3 °F 21% 30.24 in 10.0 mi Calm Calm - N/A   Clear
1:15 PM 72.7 °F - 29.5 °F 20% 30.23 in 10.0 mi Calm Calm - N/A   Clear
1:35 PM 73.2 °F - 28.6 °F 19% 30.22 in 10.0 mi SW 3.5 mph - N/A   Clear
1:55 PM 73.4 °F - 27.5 °F 18% 30.21 in 10.0 mi Calm Calm - N/A   Clear
2:15 PM 74.3 °F - 25.5 °F 16% 30.21 in 10.0 mi West 3.5 mph - N/A   Clear
2:35 PM 74.3 °F - 24.6 °F 16% 30.20 in 10.0 mi Calm Calm - N/A   Clear
2:55 PM 74.1 °F - 24.3 °F 16% 30.20 in 10.0 mi Calm Calm - N/A   Clear
3:15 PM 74.1 °F - 24.1 °F 15% 30.19 in 10.0 mi Calm Calm - N/A   Clear
3:35 PM 74.7 °F - 24.1 °F 15% 30.19 in 10.0 mi Calm Calm - N/A   Clear
3:55 PM 74.5 °F - 23.9 °F 15% 30.19 in 10.0 mi Calm Calm - N/A   Clear
4:15 PM 74.3 °F - 23.2 °F 15% 30.19 in 10.0 mi Calm Calm - N/A   Clear
4:35 PM 74.3 °F - 23.5 °F 15% 30.19 in 10.0 mi Calm Calm - N/A   Clear
4:55 PM 74.1 °F - 24.3 °F 16% 30.20 in 7.0 mi Calm Calm - N/A   Clear
5:15 PM 72.7 °F - 26.6 °F 18% 30.20 in 10.0 mi ENE 5.8 mph - N/A   Clear
5:35 PM 71.2 °F - 27.5 °F 20% 30.20 in 10.0 mi East 5.8 mph - N/A   Clear
5:55 PM 69.3 °F - 28.0 °F 21% 30.20 in 10.0 mi East 4.6 mph - N/A   Clear
6:15 PM 67.3 °F - 27.9 °F 23% 30.21 in 10.0 mi East 4.6 mph - N/A   Clear
6:35 PM 66.6 °F - 27.7 °F 23% 30.21 in 10.0 mi East 4.6 mph - N/A   Clear
6:55 PM 65.1 °F - 27.7 °F 24% 30.21 in 10.0 mi East 4.6 mph - N/A   Clear
7:15 PM 63.5 °F - 27.9 °F 26% 30.22 in 10.0 mi East 3.5 mph - N/A   Clear
7:35 PM 61.5 °F - 28.0 °F 28% 30.22 in 10.0 mi ENE 3.5 mph - N/A   Clear
7:55 PM 59.9 °F - 28.0 °F 30% 30.22 in 10.0 mi East 4.6 mph - N/A   Clear
8:15 PM 60.6 °F - 27.1 °F 28% 30.23 in 10.0 mi East 4.6 mph - N/A   Clear
8:35 PM 61.5 °F - 26.2 °F 26% 30.23 in 10.0 mi East 5.8 mph - N/A   Clear
8:55 PM 61.5 °F - 25.9 °F 26% 30.24 in 10.0 mi Calm Calm - N/A   Clear
9:15 PM 59.2 °F - 26.4 °F 29% 30.24 in 10.0 mi East 4.6 mph - N/A   Clear
9:35 PM 59.2 °F - 26.4 °F 29% 30.24 in 10.0 mi East 3.5 mph - N/A   Clear
9:55 PM 58.5 °F - 27.0 °F 30% 30.24 in 10.0 mi Calm Calm - N/A   Clear
10:15 PM 57.9 °F - 27.0 °F 31% 30.24 in 10.0 mi Calm Calm - N/A   Clear
10:35 PM 57.7 °F - 27.5 °F 31% 30.24 in 10.0 mi Calm Calm - N/A   Clear
10:55 PM 56.7 °F - 28.4 °F 34% 30.24 in 10.0 mi Calm Calm - N/A   Clear
11:15 PM 55.9 °F - 28.9 °F 36% 30.24 in 10.0 mi SE 3.5 mph - N/A   Clear
11:35 PM 55.6 °F - 28.8 °F 36% 30.24 in 10.0 mi SE 3.5 mph - N/A   Clear
11:55 PM 55.9 °F - 28.2 °F 35% 30.24 in 10.0 mi SE 3.5 mph - N/A   Clear